sat.trackr.live / text

‹ back to catalog

IRIDIUM 164

NORAD 43577 · 2018-061J

PAYLOAD ACTIVE UNKNOWN

§ Identity

Operator
Country
US
Launch date
2018-07-25
Launch site
AFWTR
Launch vehicle
Mass (kg)
RCS (m²)

Purposes: comms

External: N2YO · Heavens-Above · Gunter

§ Orbital elements

Epoch: 2026-09-12T02:23:38.361120Z

Period
100.40 min
Inclination
86.4001°
Eccentricity
0.0001979
Mean motion
14.34217801 rev/d
Perigee alt
776.3 km
Apogee alt
779.1 km
Semi-major
7,155.8 km
B*
2.8853e-5
RAAN
20.4180°
Arg perigee
92.8394°
Mean anomaly
267.3029°
Rev number
42,587

§ Raw data

IRIDIUM 1641 43577U 18061J   26255.09974955  .00000101  00000+0  28853-4 0  99912 43577  86.4001  20.4180 0001979  92.8394 267.3029 14.34217801425879

JSON: /api/v1/satellites/43577 · /tle

For live sub-satellite position, see the globe view (requires WebGL).

§ Visibility from observer

Set your observer location to see the next 7 days of passes ≥ 10°. The values pass through the URL so the page stays shareable.

No JS? Fill the form by hand. The geolocation button needs JavaScript.